Epoch 2012 Sept. 30.0 TT = JDT 2456200.5 T 2012 Sept. 28.22278 TT MPC q 1.2961798 (2000.0) P Q z +0.0000416 Peri. 137.99158 -0.04272961 +0.92534853 +/-0.0000027 Node 125.98193 -0.99486397 -0.00477933 e 0.9999461 Incl. 27.74404 -0.09175985 -0.37908740 From 552 observations 2012 Feb. 2-2013 June 10, mean residual 0".6.
m1 = 11.0 + 5 log d + 10.0 log r [ ,-62] ( - 2012 July 28) m1 = 2 + 5 log d + 30 log r(t + 200) [-62, 20] (2012 July 28 - 2012 Oct. 18) m1 = 16.5 + 5 log d + 5.0 log r [ 20, ] (2012 Oct. 18 - ) * Gray curve is: m1 = 11.0 + 5 log d + 10.0 log r